SCP
0 0 0 0 0 0 0 0 0 0 0 0 0 0 0 0 0 0 0 0 0 0 0 0 0 0 0 0 0 0 0 0 0 0 0 0 0 0 0 0 0 0 0 0 0 0 0 0 0
0 0 0 0 0 0 0 0 0 0 0 0 0 0 0 0 0 0 0 0 0 0 0 0 0 0 0 0 0 0 0 0 0 0 0 0 0 0 0 0 0 0 0 0 0 0 0 0 0
0 0 0 0 0 0 0 0 0 0 0 0 0 0 0 0 0 0 0 0 0 0 0 0 0 0 0 0 0 0 0 0 0 0 0 0 0 0 0 0 0 0 0 0 0 0 0 0 0
0 0 0 0 0 0 0 0 0 0 0 0 0 0 0 0 0 0 0 0 0 0 0 0 0 0 0 0 0 0 0 0 0 0 0 0 0 0 0 0 0 0 0 0 0 0 0 0 0
0 0 0 0 0 0 0 0 0 0 0 0 0 0 0 0 0 0 0 0 0 0 0 0 0 0 0 0 0 0 0 0 0 0 0 0 0 0 0 0 0 0 0 0 0 0 0 0 0
0 0 0 0 0 0 0 0 0 0 0 0 0 0 0 0 0 0 0 0 0 0 0 0 0 0 0 0 0 0 0 0 0 0 0 0 0 0 0 0 0 0 0 0 0 0 0 0 0
0 0 0 0 0 0 0 0 0 0 0 0 0 0 0 0 0 0 0 0 0 0 0 0 0 0 0 0 0 0 0 0 0 0 0 0 0 0 0 0 0 0 0 0 0 0 0 0 0
0 0 0 0 0 0 0 0 0 0 0 0 0 0 0 0 0 0 0 0 0 0 0 0 0 0 0 0 0 0 0 0 0 0 0 0 0 0 0 0 0 0 0 0 0 0 0 0 0
0 0 0 0 0 0 0 0 0 0 0 0 0 0 0 1 1 1 1 1 0 0 0 0 0 0 0 0 0 0 0 0 0 0 0 0 0 0 0 0 0 0 0 0 0 0 0 0 0
0 0 0 0 0 0 0 0 0 0 0 0 0 0 1 1 1 2 2 1 1 1 0 0 0 0 0 0 0 0 0 0 0 0 0 0 0 0 0 0 0 0 0 0 0 0 0 0 0
0 0 0 0 0 0 0 0 0 0 0 0 0 0 1 1 2 2 2 2 1 1 0 0 0 0 0 0 0 0 0 0 0 0 0 0 0 0 0 0 0 0 0 0 0 0 0 0 0
0 0 0 0 0 0 0 0 0 0 0 0 0 1 1 2 2 2 2 2 1 1 0 0 0 0 0 0 0 0 0 0 0 1 1 1 0 0 0 0 0 0 0 0 0 0 0 0 0
0 0 0 0 0 0 0 0 0 0 0 0 0 1 2 2 2 2 2 2 1 1 1 0 1 1 1 0 0 0 0 0 1 1 1 1 1 1 1 1 0 0 0 0 0 0 0 0 0
0 0 0 0 0 0 0 0 0 0 0 0 1 1 2 2 2 2 2 2 1 1 1 1 1 1 1 1 1 1 0 1 1 1 1 1 1 1 1 1 1 1 1 1 1 1 1 0 0
0 0 0 0 0 0 0 0 1 1 1 1 1 1 2 2 2 2 2 2 1 1 1 1 1 1 1 1 1 1 1 1 1 1 2 2 2 2 2 2 1 1 1 1 1 1 1 1 1
0 0 0 0 0 0 0 0 1 2 2 2 2 2 2 2 3 2 2 2 2 2 2 2 2 2 2 2 2 1 1 1 2 2 3 3 2 2 3 2 2 2 2 2 1 1 1 1 1
0 0 0 0 0 0 0 1 2 3 3 3 3 3 3 3 3 3 2 2 2 2 2 2 3 3 3 3 3 2 2 2 3 3 4 3 3 3 3 3 3 3 2 2 2 2 2 2 2
0 0 0 0 0 0 0 1 2 4 4 4 4 4 4 4 4 4 3 3 3 3 3 4 4 5 5 4 3 3 3 4 4 4 5 4 4 4 4 4 4 3 3 2 2 2 2 2 2
0 0 0 0 0 0 0 1 2 4 4 5 5 5 4 4 4 4 5 5 5 5 4 5 6 6 6 5 5 5 5 5 5 5 5 5 5 5 5 5 5 4 4 3 3 2 2 2 2
0 0 0 0 0 0 0 1 2 3 4 4 4 4 4 4 4 4 5 5 6 5 5 6 6 7 7 6 6 6 6 6 6 6 6 6 6 6 6 6 6 5 5 4 3 3 2 2 2
0 0 0 0 0 0 0 0 1 2 3 3 3 3 4 4 4 4 4 5 5 5 5 5 6 6 7 7 7 7 8 8 8 7 7 7 6 7 7 6 6 5 5 4 4 3 3 2 2
0 0 0 0 0 0 0 0 1 1 2 2 2 2 3 3 3 4 4 4 4 4 4 5 5 6 7 7 7 8 8 9 9 9 8 7 7 7 7 6 5 5 5 4 4 3 3 3 3
0 0 0 0 0 0 0 0 0 1 1 1 1 2 2 2 3 3 4 4 4 3 4 4 5 5 6 7 8 8 8 9 9 9 8 7 7 7 7 6 5 5 4 4 3 3 3 4 4
0 0 0 0 0 0 0 0 0 0 1 1 1 1 2 2 2 3 3 3 3 3 3 4 5 5 6 6 7 7 7 7 8 8 7 7 7 7 7 7 6 5 4 3 3 3 2 3 3
0 0 0 0 0 0 0 0 0 0 1 1 1 1 1 1 2 2 2 2 2 2 2 3 4 5 6 6 7 7 7 7 7 7 7 7 7 7 7 7 6 5 4 3 3 3 2 2 2
0 0 0 0 0 0 0 0 0 0 1 1 1 1 1 1 1 1 1 1 1 1 2 2 3 5 7 8 8 8 8 8 8 8 8 7 8 7 7 7 6 5 4 3 3 2 2 2 2
0 0 0 0 0 0 0 0 0 0 0 0 0 0 0 0 0 0 0 0 1 1 1 2 2 4 7 9 9 9 9 9 9 9 8 7 7 7 7 6 5 4 3 3 2 2 2 2 2
0 0 0 0 0 0 0 0 0 0 0 0 0 0 0 0 0 0 1 1 1 1 1 1 2 4 6 8 9 10 10 9 9 9 8 7 5 5 5 5 4 3 2 2 2 2 2 1 1
0 0 0 0 0 0 0 0 0 0 0 0 0 0 0 0 0 1 1 1 1 1 1 1 2 3 4 6 7 8 8 7 6 6 6 5 4 3 3 3 2 2 2 1 1 1 1 1 1
0 0 0 0 0 0 0 0 0 0 0 0 0 0 0 0 1 1 1 1 1 0 1 1 1 2 3 5 5 5 5 4 4 4 4 3 2 2 2 2 1 1 1 1 1 1 1 1 1
Wind_Speed
8 8 6 6 8 2 10 9 7 5 4 3 4 1 2 1 3 5 6 16 17 17 19 19 16 15 14 14 13 13 12 12 12 11 11 10 10 9 9 8 7 7 7 6 6 6 7 7 7
5 6 7 8 6 5 9 8 7 7 6 4 4 1 1 2 5 6 10 16 17 17 17 18 18 16 15 14 13 13 12 11 11 11 10 10 9 9 8 8 7 6 6 6 5 5 5 6 6
6 8 7 6 3 7 7 7 6 6 4 1 2 1 3 3 4 7 11 17 17 16 16 17 19 16 15 14 13 13 12 11 10 10 9 9 9 8 8 7 7 6 5 5 4 4 4 4 4
6 7 7 4 5 7 5 4 3 4 3 1 1 2 4 5 3 8 14 17 17 16 16 18 18 16 15 14 13 12 12 11 10 10 9 9 8 8 8 7 6 5 5 4 4 3 4 4 4
7 7 5 1 5 6 5 3 2 1 2 1 1 1 5 5 6 12 15 16 16 16 15 18 17 16 14 14 13 12 11 11 10 10 9 8 8 7 7 7 6 5 5 4 3 3 3 4 5
6 6 5 2 6 6 7 3 1 1 1 2 2 3 6 7 10 13 15 14 15 14 14 16 16 15 14 13 12 12 11 10 10 9 9 8 8 7 7 7 6 6 5 4 4 4 4 5 5
7 6 4 1 3 5 7 4 1 2 1 1 2 2 7 9 11 13 13 13 13 14 13 14 16 15 14 12 12 11 11 10 9 9 9 8 8 7 7 7 6 6 6 5 5 5 5 6 6
6 7 6 4 2 4 6 4 2 2 2 3 3 2 5 13 13 13 13 12 12 12 12 12 13 13 13 14 13 12 11 10 10 9 9 9 8 9 8 9 8 7 7 7 7 7 8 8 8
6 9 7 3 1 3 5 4 2 1 4 4 4 2 4 17 16 14 13 13 13 12 11 12 12 12 12 12 13 13 12 11 10 11 11 10 10 11 10 10 7 7 8 9 9 10 10 10 12
7 9 4 3 3 4 5 5 4 3 4 5 5 4 8 17 17 16 15 16 16 15 14 12 12 12 11 9 9 10 11 11 11 9 10 10 8 6 7 6 6 9 10 11 12 11 12 13 8
6 6 2 2 3 6 6 5 4 6 4 2 4 9 14 18 18 17 16 16 15 15 14 13 11 10 11 8 7 7 6 7 9 10 9 8 6 6 7 5 7 9 11 10 8 9 8 7 5
5 3 4 5 5 7 8 7 6 6 5 4 3 8 17 20 20 19 17 15 14 14 14 13 12 10 9 8 7 7 6 6 7 8 10 8 6 6 6 5 6 5 5 5 6 5 7 7 7
6 5 5 6 8 8 9 8 7 6 6 5 2 10 17 19 18 17 15 14 13 13 13 12 11 11 10 8 7 7 7 7 8 7 8 9 7 7 6 5 5 7 6 6 6 6 6 6 7
1 5 7 8 7 5 7 7 6 4 6 4 3 9 14 17 17 16 15 14 14 14 13 12 12 11 10 9 8 7 7 6 8 7 9 9 8 7 6 7 7 7 7 6 6 7 6 6 6
4 7 8 5 4 2 6 9 1 8 7 5 4 7 11 14 15 15 14 13 13 13 12 12 12 12 12 11 11 9 8 8 8 8 9 9 10 8 8 8 7 7 7 7 7 8 7 7 7
6 8 7 4 2 1 8 8 5 9 7 6 4 5 8 10 13 12 12 12 11 11 11 11 10 12 12 11 10 9 9 9 8 8 8 10 11 10 8 8 8 7 7 7 6 7 8 7 7
7 6 3 4 2 2 6 5 6 9 7 5 4 3 5 7 9 10 11 12 11 11 10 11 11 11 11 11 9 10 8 8 8 8 8 9 10 10 9 8 7 8 7 7 8 7 6 7 7
2 3 4 3 2 4 5 3 5 8 7 6 5 3 2 4 5 7 9 10 10 10 11 11 10 10 10 9 8 8 9 9 9 8 8 9 8 9 8 7 9 8 7 7 7 8 7 7 7
2 4 4 1 2 5 5 5 4 6 6 6 6 5 2 1 0 2 5 7 9 10 11 11 11 10 9 7 8 7 8 8 9 9 10 9 9 8 7 7 7 7 7 8 9 8 9 7 6
4 5 4 3 1 6 7 7 1 2 4 6 6 6 5 3 2 1 1 4 6 8 9 10 11 10 10 8 7 6 7 7 8 8 8 8 8 8 8 8 7 6 6 9 8 7 7 7 6
4 4 4 6 6 8 9 10 8 5 3 4 5 5 6 6 5 4 2 1 3 4 5 6 8 9 9 9 7 6 6 7 8 8 7 8 8 8 8 8 7 6 6 7 7 6 8 7 6
3 2 6 8 11 10 7 12 8 6 5 4 4 5 6 6 6 5 5 4 3 3 4 5 6 7 7 7 8 10 9 11 11 8 7 7 7 6 6 6 6 6 6 6 7 7 6 7 6
5 4 8 11 13 15 14 13 8 6 7 4 4 5 5 5 5 5 6 6 5 5 5 5 5 6 6 7 8 9 11 11 9 8 9 8 7 7 7 7 6 6 6 6 6 5 6 6 6
3 7 10 11 11 13 8 10 9 4 3 3 3 4 4 5 5 5 5 5 6 6 6 6 6 7 7 7 8 9 12 12 12 10 8 7 6 6 7 7 7 7 7 6 6 6 7 5 5
6 9 8 8 7 5 2 8 7 3 2 1 1 3 4 4 5 6 6 7 7 7 7 7 7 8 8 8 8 9 10 11 12 10 8 8 6 6 7 7 7 6 6 5 5 5 5 5 4
5 8 8 9 10 11 10 10 3 4 2 2 2 4 5 5 6 7 7 7 7 8 7 7 7 8 8 7 7 6 7 6 5 6 5 6 5 6 7 7 6 6 6 5 5 4 4 3 3
7 7 8 11 15 15 9 6 4 4 5 6 6 6 7 7 7 8 8 8 8 8 8 8 8 7 6 5 5 4 3 2 1 1 3 3 4 5 6 6 5 5 5 4 5 3 3 3 3
6 7 6 8 9 11 10 9 5 3 5 5 6 7 8 8 8 8 8 8 8 7 7 7 7 6 5 4 3 2 2 1 2 2 2 2 2 4 5 6 5 5 5 5 4 4 4 3 2
6 8 8 9 9 10 11 7 3 4 6 7 8 8 8 9 8 8 7 7 7 6 6 6 5 5 4 3 2 2 2 3 4 3 3 3 3 2 4 5 5 5 5 4 4 3 4 4 3
9 10 9 10 11 12 13 11 2 4 6 8 11 10 9 8 7 7 6 5 5 5 5 4 4 3 2 2 2 3 3 4 4 4 4 3 4 3 3 3 4 4 5 5 5 5 5 5 5
Wind_Direction
198 205 224 234 240 175 63 54 49 76 92 96 138 193 296 323 331 46 111 151 149 149 147 157 163 162 157 150 145 143 142 143 145 148 150 151 152 153 152 151 150 146 136 125 117 113 113 114 115
231 214 226 241 272 71 67 45 52 50 75 118 137 220 266 92 47 97 140 148 151 150 152 160 160 164 159 154 150 148 147 147 148 150 152 154 155 157 157 156 156 155 149 143 135 128 125 126 129
236 235 259 260 13 41 54 46 70 92 93 144 145 332 350 41 103 137 143 152 154 152 157 154 162 166 162 158 155 153 151 151 153 154 156 158 160 162 160 157 157 159 157 154 150 146 142 144 150
238 232 241 268 66 52 26 34 112 130 109 79 241 122 84 57 118 138 145 157 156 158 161 152 167 169 167 163 160 159 157 158 159 159 161 163 165 167 166 164 163 165 164 163 160 163 166 173 180
245 262 250 144 68 55 37 34 147 148 55 86 248 85 93 94 114 137 153 161 163 163 161 154 170 172 172 170 167 165 165 165 166 166 167 169 172 174 174 175 177 180 183 185 186 192 199 202 205
251 256 251 117 84 66 47 49 188 345 55 136 178 127 99 118 142 151 156 166 168 165 165 151 168 176 177 177 176 174 174 175 176 176 175 177 179 183 184 185 187 190 195 202 211 217 220 226 228
276 274 261 183 111 87 40 18 341 344 302 91 163 142 122 150 152 155 157 172 172 170 168 160 170 178 182 185 185 184 184 185 187 187 186 189 192 196 198 198 201 205 211 219 228 235 238 238 238
288 272 227 199 161 85 37 22 17 303 84 113 184 217 150 163 160 162 165 174 175 176 176 174 175 178 184 186 189 193 193 195 197 200 200 200 205 210 210 214 204 220 229 237 243 246 248 248 244
260 257 237 196 183 81 31 2 50 66 132 171 205 314 94 152 164 168 170 177 181 185 184 186 179 182 190 192 179 189 196 200 204 205 207 213 220 211 201 216 183 227 243 249 252 252 252 251 238
242 251 253 40 342 347 348 337 346 208 192 196 189 154 147 157 171 178 183 185 185 188 188 193 187 187 193 198 177 199 200 194 211 213 204 214 226 240 243 141 199 240 251 255 250 250 250 245 244
241 264 312 252 320 320 314 321 308 269 240 228 222 178 169 173 180 188 193 194 190 191 191 193 192 195 199 197 194 202 207 196 209 216 217 229 234 226 233 221 203 221 233 244 233 233 245 243 245
239 237 272 289 315 305 309 307 297 280 319 355 292 183 176 183 189 194 195 197 192 196 197 194 193 196 209 212 203 208 212 204 215 206 219 222 225 240 241 241 249 242 237 244 261 257 251 261 262
232 243 252 273 281 290 288 279 291 287 327 328 256 180 187 192 194 197 197 198 196 198 201 198 197 200 204 215 225 219 224 221 219 225 217 233 235 235 239 245 251 258 256 246 246 259 264 263 257
265 274 263 263 271 263 266 268 257 321 340 315 229 198 200 200 198 196 198 199 200 201 202 200 200 202 207 212 220 231 233 226 240 227 226 225 238 241 244 241 241 250 256 264 269 264 261 261 268
259 260 244 223 240 227 267 243 283 354 326 296 252 220 213 208 203 203 200 201 204 205 203 201 203 204 206 217 222 228 232 229 230 230 229 228 236 236 239 248 246 247 251 252 254 262 263 259 259
231 236 225 144 205 168 260 242 54 353 328 306 288 244 224 213 214 212 207 207 209 209 205 205 209 206 209 216 225 233 235 235 232 233 229 226 237 239 240 247 249 250 253 252 252 255 259 262 268
211 225 222 169 122 303 267 278 21 355 342 329 315 274 236 220 220 221 218 213 212 212 211 210 214 215 213 216 220 234 240 244 244 238 236 233 238 242 242 249 255 257 257 255 257 251 254 265 271
207 231 224 241 62 294 272 300 359 7 -0 1 357 339 272 240 229 228 227 225 218 215 216 218 214 217 216 216 219 230 236 238 240 243 243 246 245 246 246 250 254 258 258 258 257 265 259 263 270
281 270 267 297 354 288 282 296 348 10 16 24 25 22 24 19 14 221 223 228 223 219 219 219 221 213 213 219 223 227 233 237 240 239 240 241 247 251 249 256 258 254 255 257 257 256 256 256 260
225 248 252 220 284 293 290 277 219 40 40 33 37 36 32 38 64 74 210 220 228 227 227 223 222 221 218 219 223 230 242 247 243 242 240 239 242 247 249 248 252 252 255 257 256 254 256 259 250
224 272 304 307 299 257 276 261 196 165 128 91 72 61 48 33 21 21 6 327 266 250 249 248 244 237 233 231 230 238 237 245 245 238 233 235 240 245 246 251 254 252 250 253 253 250 250 257 258
259 340 302 293 289 289 288 288 255 189 179 133 86 68 56 42 29 17 6 357 335 309 283 271 263 258 251 244 238 238 242 244 243 237 230 226 227 235 239 244 249 249 245 244 245 240 243 247 256
326 325 291 289 286 282 271 270 271 182 217 157 93 65 54 40 26 14 4 355 348 336 319 301 289 278 267 259 253 251 253 253 251 242 235 223 213 209 214 220 226 235 240 239 242 241 242 242 252
292 272 269 259 263 268 278 282 279 232 218 144 93 60 40 27 13 4 352 342 336 331 325 318 307 295 281 270 265 256 257 258 255 243 229 215 204 201 202 207 210 218 223 222 223 230 232 244 250
270 298 291 273 251 278 10 281 280 59 118 160 23 10 5 352 343 340 338 337 335 332 330 322 317 308 301 287 275 268 264 261 254 245 229 212 199 193 187 196 197 203 209 207 209 216 226 223 226
310 302 304 306 304 308 296 268 299 98 161 203 259 291 304 309 313 315 317 321 323 327 328 324 318 312 309 299 289 283 274 264 254 241 225 204 193 185 175 183 183 185 194 196 198 206 199 202 216
290 291 321 293 284 281 272 266 265 168 214 231 252 269 285 296 301 301 305 311 316 320 323 321 319 317 318 317 307 293 290 277 247 179 193 182 172 168 166 165 165 172 178 184 198 188 192 188 208
287 307 280 280 293 291 283 280 273 200 239 255 269 286 295 294 293 294 296 299 304 309 312 317 318 316 319 328 329 338 348 37 72 94 99 103 136 147 148 149 156 163 169 178 195 178 164 179 159
250 256 277 284 279 287 292 298 20 280 287 285 290 299 300 295 293 293 292 295 296 298 305 312 317 322 334 356 19 25 33 62 69 67 74 77 84 107 134 140 146 154 160 163 172 152 146 141 117
274 274 269 269 275 265 275 285 312 256 275 281 288 293 294 289 289 290 289 289 291 297 305 315 321 329 346 12 55 67 52 56 68 68 68 73 73 72 79 110 132 147 145 145 144 132 121 112 101